Weather History for Dallas Addison, TX

Change the Weather History Date:

Sunday, February 24, 2013

  Actual Average Record
Temperature  
Mean Temperature 54 °F -  
Max Temperature 68 °F 58 °F 80 °F (2011)
Min Temperature 41 °F 42 °F 23 °F (2003)
Degree Days  
Heating Degree Days 10    
Growing Degree Days 4 (Base 50)    
Moisture  
Dew Point 34 °F    
Average Humidity 51    
Maximum Humidity 82    
Minimum Humidity 28    
Precipitation  
Precipitation 0.00 in - - ()
Sea Level Pressure  
Sea Level Pressure 29.81 in    
Wind  
Wind Speed 9 mph (ESE)    
Max Wind Speed 17 mph    
Max Gust Speed 26 mph    
Visibility 12 miles    
Events      
Averages and records for this station are not official NWS values.
T = Trace of Precipitation, MM = Missing Value Source: NWS Daily Summary

Daily Weather History Graph

Daily Weather History Graph

Search for Another Location

Airport:

Trip Planner

Search our weather history database for the weather conditions in past years. The results will help you decide how hot, cold, wet, or windy it might be!

Date:

Astronomy

Feb. 24, 2013 Rise Set
Actual Time 7:00 AM CST 6:20 PM CST
Civil Twilight 6:35 AM CST 6:45 PM CST
Nautical Twilight 6:07 AM CST 7:14 PM CST
Astronomical Twilight 5:38 AM CST 7:42 PM CST
Moon 5:32 PM CST (2/24) 5:57 AM CST (2/24)
Length of Visible Light 12h 09m
Length of Day
11h 19m
Waxing Gibbous, 99% of the Moon is Illuminated
Feb 24
Waxing Gibbous
Feb 25
Full
Mar 4
Last Quarter
Mar 11
New
Mar 19
First Quarter

Hourly Weather History & Observations

Time (CST) Temp. Windchill Dew Point Humidity Pressure Visibility Wind Dir Wind Speed Gust Speed Precip Events Conditions
12:15 AM 42.8 °F 39.3 °F 28.4 °F 57% 29.93 in 10.0 mi East 5.8 mph - N/A   Clear
12:35 AM 42.8 °F 38.6 °F 28.4 °F 57% 29.92 in 10.0 mi East 6.9 mph - N/A   Clear
12:55 AM 42.8 °F 38.0 °F 28.4 °F 57% 29.92 in 10.0 mi East 8.1 mph - N/A   Clear
1:15 AM 42.8 °F 37.0 °F 28.4 °F 57% 29.91 in 10.0 mi East 10.4 mph - N/A   Clear
1:35 AM 42.8 °F 36.2 °F 28.4 °F 57% 29.91 in 10.0 mi East 12.7 mph - N/A   Clear
1:55 AM 42.8 °F 37.0 °F 28.4 °F 57% 29.91 in 10.0 mi East 10.4 mph - N/A   Clear
2:15 AM 42.8 °F 39.3 °F 30.2 °F 61% 29.91 in 10.0 mi ESE 5.8 mph - N/A   Clear
2:35 AM 42.8 °F 38.6 °F 30.2 °F 61% 29.90 in 10.0 mi ESE 6.9 mph - N/A   Clear
2:55 AM 41.0 °F 36.4 °F 30.2 °F 65% 29.91 in 10.0 mi SE 6.9 mph - N/A   Clear
3:15 AM 42.8 °F 39.3 °F 30.2 °F 61% 29.91 in 10.0 mi SE 5.8 mph - N/A   Clear
3:55 AM 41.0 °F 35.8 °F 30.2 °F 65% 29.89 in 10.0 mi ESE 8.1 mph - N/A   Clear
4:15 AM 41.0 °F 35.2 °F 30.2 °F 65% 29.90 in 10.0 mi ESE 9.2 mph - N/A   Clear
4:35 AM 41.0 °F 36.4 °F 30.2 °F 65% 29.90 in 10.0 mi ESE 6.9 mph - N/A   Clear
4:55 AM 41.0 °F 38.0 °F 30.2 °F 65% 29.90 in 10.0 mi East 4.6 mph - N/A   Clear
5:55 AM 41.0 °F 37.1 °F 28.4 °F 61% 29.91 in 13.0 mi East 5.8 mph - N/A   Clear
7:52 AM 42.8 °F 37.0 °F 32.0 °F 66% 29.93 in 13.0 mi ESE 10.4 mph - N/A   Clear
8:47 AM 46.4 °F 41.1 °F 35.6 °F 66% 29.94 in 13.0 mi SE 11.5 mph 21.9 mph N/A   Clear
9:52 AM 53.6 °F - 37.4 °F 54% 29.93 in 13.0 mi SE 11.5 mph - N/A   Clear
10:47 AM 57.2 °F - 41.0 °F 55% 29.91 in 13.0 mi SE 16.1 mph 26.5 mph N/A   Clear
11:47 AM 62.6 °F - 57.2 °F 82% 29.88 in 13.0 mi ESE 16.1 mph 21.9 mph N/A   Clear
12:47 PM 64.4 °F - 39.2 °F 40% 29.84 in 13.0 mi ESE 16.1 mph 21.9 mph N/A   Clear
1:55 PM 66.2 °F - 37.4 °F 35% 29.77 in 15.0 mi SE 15.0 mph 24.2 mph N/A   Clear
2:50 PM 68.0 °F - 37.4 °F 33% 29.75 in 15.0 mi ESE 13.8 mph 23.0 mph N/A   Clear
3:47 PM 68.0 °F - 37.4 °F 33% 29.72 in 13.0 mi SE 15.0 mph 24.2 mph N/A   Clear
4:47 PM 68.0 °F - 35.6 °F 30% 29.71 in 13.0 mi SE 17.3 mph 26.5 mph N/A   Clear
5:50 PM 66.2 °F - 32.0 °F 28% 29.72 in 20.0 mi SE 13.8 mph 21.9 mph N/A   Clear
6:47 PM 64.4 °F - 33.8 °F 32% 29.71 in 16.0 mi ESE 12.7 mph 16.1 mph N/A   Clear
7:47 PM 62.6 °F - 33.8 °F 34% 29.70 in 15.0 mi ESE 9.2 mph - N/A   Clear
8:47 PM 60.8 °F - 35.6 °F 39% 29.71 in 15.0 mi East 11.5 mph - N/A   Clear
9:15 PM 59.0 °F - 33.8 °F 39% 29.71 in 10.0 mi ESE 9.2 mph - N/A   Clear
9:47 PM 59.0 °F - 37.4 °F 45% 29.70 in 15.0 mi East 8.1 mph - N/A   Clear
9:55 PM 59.0 °F - 35.6 °F 42% 29.70 in 10.0 mi East 8.1 mph - N/A   Clear
10:15 PM 57.2 °F - 35.6 °F 44% 29.70 in 10.0 mi ESE 9.2 mph - N/A   Clear
10:35 PM 55.4 °F - 35.6 °F 47% 29.68 in 10.0 mi ESE 9.2 mph - N/A   Clear
10:55 PM 55.4 °F - 35.6 °F 47% 29.66 in 10.0 mi ESE 11.5 mph - N/A   Clear
11:15 PM 55.4 °F - 35.6 °F 47% 29.64 in 10.0 mi ESE 12.7 mph 19.6 mph N/A   Clear
11:35 PM 55.4 °F - 37.4 °F 51% 29.63 in 10.0 mi ESE 11.5 mph 18.4 mph N/A   Clear
11:55 PM 57.2 °F - 37.4 °F 48% 29.60 in 10.0 mi ESE 15.0 mph 24.2 mph N/A   Clear